Starlink 32139

operational
NORAD ID: 61510 Int'l Des: 2024-183 Owner: SPXS Country: US Constellation: starlink
LEOCIRCULAR

关于 Starlink 32139

正在加载描述...

实时位置

正在加载3D地球...

即将过境

高度历史

Altitude vs Time

uPlot chart will show altitude changes over time

两行轨道根数

1 61510U 24183B 25258.65899879 -.00003521 00000-0 -10693-3 0 9999
2 61510 53.1576 235.5110 0002250 91.5801 268.5458 15.30161635 52851
Epoch: Sep 15, 2025 • Age: 21 hours

当前状态

高度 479.5 km
速度 7.63 km/s
星下点 49.11°N, 166.33°E
发射日期 Oct 15, 2024
运行时间 0.9 years
类型 internet

技术详情

分类 Payload
质量 730.00 kg
干质量 700.00 kg
总质量 730.00 kg
长度 0.30 m
直径 4.10 m
跨度 29.00 m
形状 Box + pan
制造商 SPXS
平台类型 Starlink V2M
阶段状态 In Orbit
所有者/国家 SPXS/US

大型星座

Loading constellations...